Regional Weather Roundup
Issued by NWS Cleveland, OH

Home | Current Version | Previous Version | Graphics & Text | Print | Product List | Glossary On
Versions: 1 2 3 4 5 6 7 8 9 10 11 12 13 14 15 16 17 18 19 20 21 22 23 24 25 26 27 28 29 30 31 32 33 34 35 36 37 38 39 40 41 42 43 44 45 46 47 48 49 50
000
ASUS41 KCLE 272000
RWRCLE
OHIO REGIONAL WEATHER ROUNDUP
NATIONAL WEATHER SERVICE WILMINGTON, OH
300 PM EST SAT DEC 27 2014

NOTE: "FAIR" INDICATES FEW OR NO CLOUDS BELOW 12,000 FEET WITH NO
SIGNIFICANT WEATHER AND/OR OBSTRUCTIONS TO VISIBILITY.

OHZ001>008-015>018-024>027-034-035-043-044-272100-
   NORTHWEST OHIO

CITY           SKY/WX    TMP DP  RH WIND       PRES   REMARKS
DEFIANCE       CLOUDY    47  44  90 SW10G22   30.01F
FINDLAY        CLOUDY    50  44  80 SW17      30.01F
TOLEDO EXPRESS CLOUDY    47  43  86 SW17G26   29.98F
TOLEDO METCALF CLOUDY    48  45  89 SW15      30.00S FOG
LIMA           CLOUDY    50  44  80 SW15G22   30.03F
$$

OHZ009>014-019>023-028>033-038-089-272100-
   NORTHEAST OHIO

CITY           SKY/WX    TMP DP  RH WIND       PRES   REMARKS
CLE-HOPKINS    CLOUDY    53  34  48 S17       30.03S
CLE-LAKEFRONT  CLOUDY    56  32  40 S15G24    29.99F
CUY CO. ARPT   CLOUDY    57  32  38 SW14      30.01S
LORAIN-ELYRIA  CLOUDY    51  36  56 SW26G33   30.03R
ASHTABULA      PTSUNNY   56  35  45 S17G23    29.99F
AKRON-CANTON   MOSUNNY   56  31  38 S14G24    30.03F
WOOSTER        NOT AVBL
MANSFIELD      CLOUDY    52  36  54 S17G26    30.03S
YOUNGSTOWN     PTSUNNY   57  33  40 S10G20    30.02F
$$

OHZ042-051>053-060>062-070>072-077>081-272100-
  SOUTHWEST OHIO

CITY           SKY/WX    TMP DP  RH WIND       PRES   REMARKS
CINC-COVINGTON CLOUDY    49  42  77 S9        30.10F
CINC-LUNKEN    CLOUDY    50  46  86 SW12      30.11F
HAMILTON       LGT RAIN  50  45  83 SW5       30.10F
DAYTON         NOT AVBL
WRIGHT-PAT AFB CLOUDY    50  44  79 SW13      30.07F
DAYTON GENERAL CLOUDY    49  44  83 SW12      30.08S
WILMINGTON     CLOUDY    50  41  71 SW13      30.08F
$$

OHZ036-037-039>041-045>050-054>059-063>069-073>076-082>088-272100-
  CENTRAL AND SOUTHEAST OHIO

CITY           SKY/WX    TMP DP  RH WIND       PRES   REMARKS
COLUMBUS       CLOUDY    53  36  52 SW13G20   30.09S
OSU AIRPORT    CLOUDY    53  38  56 S17       30.07F
BOLTON FIELD   NOT AVBL
RICKENBACK AFB NOT AVBL
NEWARK         CLOUDY    53  37  54 SW9       30.08S
MARION         CLOUDY    51  39  63 SW17      30.05S
LANCASTER      CLOUDY    55  36  48 SW10      30.10S
ZANESVILLE     CLOUDY    54  32  43 SW12      30.09F
NEW PHILLY     MOSUNNY   55  29  36 SW10G17   30.08S
$$



USA.gov is the U.S. government's official web portal to all federal, state and local government web resources and services.